0 HST 1 20580U 90037B 25300.14590576 .00008748 00000-0 31098-3 0 9992 2 20580 28.4675 229.4219 0002136 75.7438 284.3394 15.27166615752865 0 ISS (ZARYA) 1 25544U 98067A 25300.16780669 .00014439 00000-0 26496-3 0 9994 2 25544 51.6344 13.0478 0004676 344.0892 15.9949 15.49510292535638 0 CXO 1 25867U 99040B 25301.66016621 .00000932 00000-0 00000-0 0 9993 2 25867 52.1339 124.2561 8214465 310.6062 0.1647 0.37799947 16440